Regional Weather Roundup
Issued by NWS

Home | Current Version | Previous Version | Text Only | Print | Product List | Glossary On
Versions: 1 2 3 4 5 6 7 8 9 10 11 12 13 14 15 16 17 18 19 20 21 22 23 24 25 26 27 28 29 30 31 32 33 34 35 36 37 38 39 40 41 42 43 44 45 46 47 48 49 50
000
ASUS45 KREV 280910
RWRNV
NEVADA REGIONAL WEATHER ROUNDUP
NATIONAL WEATHER SERVICE RENO NV
200 AM PDT FRI JUL 28 2017

NOTE: "FAIR" INDICATES FEW OR NO CLOUDS BELOW 12,000 FEET WITH NO
SIGNIFICANT WEATHER AND/OR OBSTRUCTIONS TO VISIBILITY.

NVZ001-003-004-281000-
WESTERN NEVADA

CITY           SKY/WX    TMP DP  RH WIND       PRES   REMARKS
RENO           CLEAR     71  46  40 SE5       30.12R
CARSON CITY    FAIR      64  45  48 NW5       30.15R
MINDEN         FAIR      57  45  62 MISG      30.15S
FALLON         CLEAR     68  41  37 SE9       30.06R
LOVELOCK       CLEAR     59  36  42 CALM      30.05S
HAWTHORNE      CLEAR     72  43  35 SE14      30.09R
$$

NVZ002-CAZ072-073-281000-
NORTHERN AND CENTRAL SIERRA

CITY           SKY/WX    TMP DP  RH WIND       PRES   REMARKS
S. LAKE TAHOE  CLEAR     52  46  80 S3        30.25S
TRUCKEE        CLEAR     50  45  81 CALM      30.25S
SQUAW VLY 8000   N/A     57  41  54 CALM        N/A
SUSANVILLE     CLEAR     63  41  45 W5        30.10S
MAMMOTH LAKES  FAIR      56  39  52 W5        30.32S
BRIDGEPORT     FAIR      53  40  61 CALM      30.28S
$$

NVZ030-031-036-281000-
NORTHERN NEVADA

CITY           SKY/WX    TMP DP  RH WIND       PRES   REMARKS
ELKO           CLEAR     60  43  53 CALM      30.15S
WINNEMUCCA     CLEAR     55  36  48 SE7       30.09S
WENDOVER       CLEAR     79  46  31 N12       30.10S
$$

NVZ035-037-281000-
CENTRAL NEVADA

CITY           SKY/WX    TMP DP  RH WIND       PRES   REMARKS
ELY            LGT RAIN  56  50  80 S5        30.23S
EUREKA           N/A     70  44  39 S13       30.22R
$$

NVZ013-014-281000-
SOUTH CENTRAL NEVADA

CITY           SKY/WX    TMP DP  RH WIND       PRES   REMARKS
TONOPAH          N/A    N/A N/A N/A MISG      30.18F
$$

NVZ017-020-022-281000-
SOUTHERN NEVADA

CITY           SKY/WX    TMP DP  RH WIND       PRES   REMARKS
LAS VEGAS      PTCLDY    91  42  18 S7        29.86R
N. LAS VEGAS   CLEAR     89  56  32 N5        29.85S
NELLIS AFB     CLEAR     89  51  27 CALM      29.83S
HENDERSON      CLEAR     86  43  22 SW8       29.91R
MERCURY        MOCLDY    81  44  27 NE3       29.96S
$$



USA.gov is the U.S. government's official web portal to all federal, state and local government web resources and services.